Location: Huesca
(42.1318°N, 0.4078°W)
Time: 13:56:16
(UTC+02:00)

Vanguard 2 Rocket - Visible Passes

Search period start: 19 July 2024 00:00
Search period end: 29 July 2024 00:00
Orbit: 555 x 3302 km, 32.9° (Epoch: 19 July)

Date Brightness Start Highest point End Pass type
(mag) Time Alt. Az. Time Alt. Az. Time Alt. Az.
19 Jul 8.6 00:47:11 10° W 00:55:42 46° S 01:00:31 35° SSE visible
19 Jul 9.5 03:00:33 10° W 03:23:14 13° SSE 03:24:51 10° SSE visible
19 Jul 10.4 05:29:04 10° SSW 05:29:04 10° SSW 05:29:39 10° SSW visible
19 Jul 8.3 23:45:11 10° WSW 23:52:26 47° S 23:59:35 24° SE visible
20 Jul 9.1 01:57:38 10° W 02:04:59 33° SW 02:04:59 33° SW visible
20 Jul10.404:32:33S04:32:33S04:10:23Wvisible
20 Jul 8.0 22:43:24 10° WSW 22:49:31 45° S 22:59:06 12° ESE visible
21 Jul 8.7 00:55:13 10° WSW 01:03:17 39° SSW 01:04:32 38° S visible
21 Jul 10.0 03:09:28 10° WSW 03:35:24 - SSE 03:09:57 11° WSW visible
21 Jul 8.4 23:53:07 10° WSW 00:00:03 41° S 00:04:18 30° SE visible
22 Jul 9.5 02:06:06 10° WSW 02:09:45 21° SW 02:09:45 21° SW visible
22 Jul 8.0 22:51:16 10° WSW 22:57:08 41° S 23:04:15 17° ESE visible
23 Jul 8.9 01:03:25 10° WSW 01:09:43 30° SSW 01:09:43 30° SSW visible
23 Jul 7.8 21:49:33 10° WSW 21:54:32 38° S 22:02:29 10° ESE visible
24 Jul 8.5 00:01:09 10° WSW 00:07:39 33° SSW 00:09:47 31° S visible
24 Jul 9.9 02:15:12 10° WSW 02:15:15 10° WSW 02:15:15 10° WSW visible
24 Jul 8.2 22:59:10 10° WSW 23:04:45 35° S 23:09:57 21° SE visible
25 Jul 9.3 01:11:59 10° WSW 01:15:25 19° SW 01:15:25 19° SW visible
25 Jul 7.8 21:57:22 10° WSW 22:02:08 35° S 22:09:33 10° ESE visible
26 Jul 8.8 00:09:25 10° WSW 00:15:16 25° SSW 00:15:39 25° SSW visible
26 Jul 8.4 23:07:14 10° WSW 23:12:23 28° S 23:15:57 21° SSE visible
27 Jul 8.0 22:05:16 10° WSW 22:09:44 29° S 22:16:18 10° SE visible
28 Jul 9.1 00:18:10 10° WSW 00:21:48 17° SSW 00:21:48 17° SSW visible
28 Jul 8.7 23:15:35 10° WSW 23:19:59 20° SSW 23:22:12 18° S visible
